When you browse on this site, cookies collect data to enhance your experience and personalize the content and advertising you see.
Visit our Privacy Policy to learn more. By continuing to use the site, you agree to this use of cookies and data.
  • In Austria
  • List of Countries
  • For 7 days
  • Water Temperature
  • Satellite Maps
  • Weather Map
  • News
  • Weather Widgets
  • user-avatar
    Login

    Hourly Weather Innsbruck

    Today, 23 January, Wednesday

    Time Temperature Precipitation Wind Pressure Humidity
    00:00 -13°C° 0 mm 1 mps 579 mmHg 66%
    01:00 -15°C° 0 mm 2 mps 579 mmHg 63%
    02:00 -13°C° 0 mm 1 mps 578 mmHg 64%
    03:00 -13°C° 0 mm 1 mps 577 mmHg 65%
    04:00 -14°C° 0 mm 1 mps 577 mmHg 66%
    05:00 -14°C° 0 mm 1 mps 577 mmHg 67%
    06:00 -14°C° 0 mm 1 mps 576 mmHg 69%
    07:00 -14°C° 0 mm 1 mps 576 mmHg 70%
    08:00 -12°C° 0 mm 1 mps 577 mmHg 73%
    09:00 -11°C° 0 mm 1 mps 577 mmHg 75%
    10:00 -10°C° 0 mm 1 mps 577 mmHg 78%
    11:00 -9°C° 0 mm 1 mps 577 mmHg 77%
    12:00 -8°C° 0 mm 1 mps 577 mmHg 75%
    13:00 -7°C° 0 mm 1 mps 577 mmHg 74%
    14:00 -8°C° 0 mm 1 mps 577 mmHg 79%
    15:00 -8°C° 0 mm 1 mps 577 mmHg 83%
    16:00 -9°C° 0 mm 1 mps 577 mmHg 88%
    17:00 -11°C° 0 mm 1 mps 576 mmHg 89%
    18:00 -12°C° 0 mm 1 mps 575 mmHg 90%
    19:00 -14°C° 0 mm 1 mps 575 mmHg 91%
    20:00 -15°C° 0 mm 1 mps 575 mmHg 89%
    21:00 -15°C° 0 mm 1 mps 575 mmHg 88%
    22:00 -15°C° 0 mm 1 mps 575 mmHg 86%
    23:00 -16°C° 0 mm 1 mps 576 mmHg 87%

    Tomorrow, 24 January, Thursday

    Time Temperature Precipitation Wind Pressure Humidity
    00:00 -16°C° 0 mm 1 mps 576 mmHg 87%
    01:00 -16°C° 0 mm 1 mps 576 mmHg 87%
    02:00 -16°C° 0 mm 1 mps 576 mmHg 87%
    03:00 -16°C° 0 mm 1 mps 577 mmHg 88%
    04:00 -16°C° 0 mm 1 mps 577 mmHg 89%
    05:00 -17°C° 0 mm 1 mps 577 mmHg 89%
    06:00 -17°C° 0 mm 1 mps 577 mmHg 89%
    07:00 -17°C° 0 mm 1 mps 577 mmHg 88%
    08:00 -15°C° 0 mm 1 mps 578 mmHg 88%
    09:00 -14°C° 0 mm 1 mps 580 mmHg 88%
    10:00 -12°C° 0 mm 1 mps 581 mmHg 87%
    11:00 -12°C° 0 mm 1 mps 581 mmHg 86%
    12:00 -13°C° 0 mm 2 mps 581 mmHg 86%
    13:00 -12°C° 0 mm 2 mps 581 mmHg 85%
    14:00 -12°C° 0 mm 2 mps 581 mmHg 87%
    15:00 -13°C° 0 mm 2 mps 581 mmHg 89%
    16:00 -13°C° 0 mm 2 mps 581 mmHg 92%
    17:00 -15°C° 0 mm 2 mps 581 mmHg 93%
    18:00 -14°C° 0 mm 1 mps 581 mmHg 94%
    19:00 -16°C° 0 mm 1 mps 581 mmHg 95%
    20:00 -16°C° 0 mm 1 mps 581 mmHg 94%
    21:00 -17°C° 0 mm 1 mps 581 mmHg 93%
    22:00 -17°C° 0 mm 1 mps 581 mmHg 92%
    23:00 -20°C° 0 mm 2 mps 581 mmHg 91%

    Day after tomorrow, 25 January, Friday

    Time Temperature Precipitation Wind Pressure Humidity
    00:00 -20°C° 0 mm 2 mps 581 mmHg 91%
    01:00 -21°C° 0 mm 2 mps 580 mmHg 90%
    02:00 -21°C° 0 mm 2 mps 580 mmHg 91%
    03:00 -20°C° 0 mm 2 mps 580 mmHg 91%
    04:00 -20°C° 0 mm 2 mps 580 mmHg 91%
    05:00 -20°C° 0 mm 2 mps 581 mmHg 92%
    06:00 -20°C° 0 mm 2 mps 581 mmHg 92%
    07:00 -20°C° 0 mm 2 mps 582 mmHg 92%
    08:00 -19°C° 0 mm 2 mps 582 mmHg 91%
    09:00 -17°C° 0 mm 2 mps 583 mmHg 90%
    10:00 -16°C° 0 mm 2 mps 584 mmHg 89%
    11:00 -16°C° 0 mm 2 mps 584 mmHg 88%
    12:00 -15°C° 0 mm 2 mps 584 mmHg 87%
    13:00 -14°C° 0 mm 2 mps 584 mmHg 86%
    14:00 -15°C° 0 mm 2 mps 584 mmHg 87%
    15:00 -15°C° 0 mm 2 mps 584 mmHg 89%
    16:00 -15°C° 0 mm 2 mps 584 mmHg 91%
    17:00 -17°C° 0 mm 2 mps 584 mmHg 92%
    18:00 -19°C° 0 mm 2 mps 584 mmHg 92%
    19:00 -21°C° 0 mm 2 mps 584 mmHg 93%
    20:00 -21°C° 0 mm 2 mps 584 mmHg 92%
    21:00 -23°C° 0 mm 2 mps 584 mmHg 91%
    22:00 -23°C° 0 mm 2 mps 584 mmHg 89%
    23:00 -23°C° 0 mm 2 mps 584 mmHg 87%

    26 January, Saturday

    Time Temperature Precipitation Wind Pressure Humidity
    00:00 -23°C° 0 mm 2 mps 584 mmHg 85%
    01:00 -23°C° 0 mm 2 mps 585 mmHg 83%
    02:00 -23°C° 0 mm 2 mps 585 mmHg 79%
    03:00 -23°C° 0 mm 2 mps 585 mmHg 75%
    04:00 -21°C° 0 mm 2 mps 585 mmHg 71%
    05:00 -21°C° 0 mm 2 mps 585 mmHg 69%
    06:00 -21°C° 0 mm 2 mps 586 mmHg 66%
    07:00 -20°C° 0 mm 2 mps 586 mmHg 63%
    08:00 -18°C° 0 mm 2 mps 587 mmHg 65%
    09:00 -15°C° 0 mm 2 mps 588 mmHg 67%
    10:00 -13°C° 0 mm 2 mps 589 mmHg 68%
    11:00 -10°C° 0 mm 2 mps 589 mmHg 65%
    12:00 -8°C° 0 mm 2 mps 589 mmHg 63%
    13:00 -6°C° 0 mm 2 mps 589 mmHg 60%
    14:00 -6°C° 0 mm 1 mps 589 mmHg 66%
    15:00 -6°C° 0 mm 1 mps 588 mmHg 72%
    16:00 -6°C° 0 mm 1 mps 587 mmHg 79%
    17:00 -8°C° 0 mm 1 mps 586 mmHg 77%
    18:00 -9°C° 0 mm 1 mps 586 mmHg 75%
    19:00 -12°C° 0 mm 2 mps 585 mmHg 73%
    20:00 -12°C° 0 mm 2 mps 585 mmHg 76%
    21:00 -10°C° 0 mm 2 mps 585 mmHg 78%
    22:00 -8°C° 0 mm 1 mps 585 mmHg 80%
    23:00 -9°C° 0 mm 2 mps 584 mmHg 80%

    27 January, Sunday

    Time Temperature Precipitation Wind Pressure Humidity
    00:00 -9°C° 0 mm 2 mps 584 mmHg 81%
    01:00 -9°C° 0 mm 2 mps 583 mmHg 81%
    02:00 -9°C° 0 mm 2 mps 582 mmHg 81%
    03:00 -9°C° 0 mm 2 mps 582 mmHg 82%
    04:00 -8°C° 0 mm 2 mps 581 mmHg 83%
    05:00 -8°C° 0.1 mm 2 mps 581 mmHg 85%
    06:00 -8°C° 0.1 mm 2 mps 581 mmHg 86%
    07:00 -7°C° 0.1 mm 1 mps 581 mmHg 88%
    08:00 -7°C° 0.9 mm 1 mps 581 mmHg 90%
    09:00 -7°C° 0.9 mm 1 mps 581 mmHg 93%
    10:00 -7°C° 0.9 mm 1 mps 581 mmHg 96%
    11:00 -8°C° 1.2 mm 2 mps 581 mmHg 95%
    12:00 -9°C° 1.2 mm 2 mps 581 mmHg 95%
    13:00 -10°C° 1.2 mm 3 mps 581 mmHg 94%
    14:00 -12°C° 0.5 mm 3 mps 580 mmHg 94%
    15:00 -13°C° 0.5 mm 3 mps 580 mmHg 93%
    16:00 -14°C° 0.5 mm 3 mps 580 mmHg 92%
    17:00 -15°C° 0.3 mm 3 mps 580 mmHg 93%
    18:00 -15°C° 0.3 mm 2 mps 580 mmHg 93%
    19:00 -16°C° 0.3 mm 2 mps 580 mmHg 93%
    20:00 -16°C° 0.1 mm 2 mps 580 mmHg 92%
    21:00 -15°C° 0.1 mm 1 mps 580 mmHg 91%
    22:00 -16°C° 0.1 mm 1 mps 580 mmHg 90%
    23:00 -16°C° 0.1 mm 1 mps 579 mmHg 89%

    28 January, Monday

    Time Temperature Precipitation Wind Pressure Humidity
    00:00 -17°C° 0.1 mm 1 mps 579 mmHg 88%
    01:00 -17°C° 0.1 mm 1 mps 579 mmHg 87%
    02:00 -17°C° 0.1 mm 1 mps 579 mmHg 87%
    03:00 -17°C° 0.1 mm 1 mps 578 mmHg 86%
    04:00 -17°C° 0.1 mm 1 mps 578 mmHg 86%
    05:00 -18°C° 0 mm 1 mps 578 mmHg 86%
    06:00 -18°C° 0 mm 1 mps 578 mmHg 85%
    07:00 -19°C° 0 mm 1 mps 578 mmHg 85%
    08:00 -17°C° 0 mm 1 mps 579 mmHg 85%
    09:00 -16°C° 0 mm 1 mps 580 mmHg 84%
    10:00 -15°C° 0 mm 1 mps 581 mmHg 84%
    11:00 -16°C° 0 mm 2 mps 581 mmHg 83%
    12:00 -15°C° 0 mm 2 mps 581 mmHg 81%
    13:00 -14°C° 0 mm 2 mps 581 mmHg 80%
    14:00 -14°C° 0 mm 2 mps 581 mmHg 83%
    15:00 -14°C° 0 mm 2 mps 581 mmHg 87%
    16:00 -15°C° 0 mm 2 mps 581 mmHg 90%
    17:00 -16°C° 0 mm 2 mps 581 mmHg 91%
    18:00 -17°C° 0 mm 2 mps 580 mmHg 93%
    19:00 -18°C° 0 mm 2 mps 580 mmHg 94%
    20:00 -19°C° 0 mm 2 mps 580 mmHg 93%
    21:00 -19°C° 0 mm 2 mps 580 mmHg 92%
    22:00 -19°C° 0 mm 2 mps 581 mmHg 92%
    23:00 -19°C° 0.1 mm 2 mps 581 mmHg 92%
    Show more